Lid_Strength_Index
12 10 10 11 10 10 13 13 15 14 12 12 10 8 8 7 7 7 6 5 5 5 4 4 3 3 3 3 2 3 2 2 2 1 1 1 1 1 1 1 1 1 1 1
12 10 10 11 10 10 11 11 11 11 12 9 8 8 8 7 7 7 6 5 5 5 4 4 3 3 3 3 3 2 2 2 2 2 1 1 2 2 1 1 1 1 1 1
15 11 11 13 11 10 10 9 11 13 11 8 9 7 7 7 6 6 5 5 5 5 4 4 3 2 3 2 2 3 3 2 2 2 2 2 1 1 1 2 1 1 1 1
14 13 18 12 9 8 10 9 8 9 8 8 8 7 6 5 6 6 5 5 4 4 4 3 3 3 2 2 3 3 3 2 2 2 2 2 2 2 1 1 2 2 2 1
15 16 13 10 9 9 11 12 8 9 8 7 6 6 7 5 4 5 4 4 3 3 3 2 3 3 3 3 3 3 3 3 2 2 2 2 2 2 1 2 2 2 1 2
15 16 16 11 7 6 7 14 8 8 8 8 7 11 9 6 4 5 5 4 4 3 2 2 4 4 5 4 4 4 3 3 3 2 2 2 2 2 1 1 2 1 2 1
14 15 13 9 7 6 14 13 7 7 7 8 9 8 6 6 6 6 6 6 5 4 4 3 4 5 6 6 6 5 4 4 4 3 3 3 2 2 1 2 2 2 2 2
14 15 16 7 7 11 9 7 7 7 7 7 7 7 7 7 7 7 6 6 5 5 5 4 4 5 6 7 6 5 5 5 4 4 3 3 3 2 2 2 2 2 3 2
12 12 8 7 8 6 6 7 7 7 7 7 8 8 7 8 7 7 6 6 5 6 6 5 5 6 7 7 6 4 4 5 4 4 3 3 3 2 2 2 3 3 3 3
11 9 9 7 6 6 5 6 6 6 7 7 8 7 8 7 7 7 7 7 7 7 7 7 6 6 6 5 5 4 4 4 3 3 2 3 3 2 2 3 3 3 3 3
10 9 8 7 6 5 5 5 6 6 6 7 7 7 7 7 7 7 8 7 8 8 7 7 6 6 4 4 4 5 4 4 2 2 3 3 3 6 6 4 7 3 3 3
11 8 8 7 5 5 6 6 6 6 7 6 7 7 7 7 8 8 8 7 7 6 6 6 7 6 5 4 3 4 4 3 4 3 3 3 3 6 9 11 13 12 9 6
8 6 6 6 4 4 6 6 6 6 7 7 6 6 6 8 8 6 6 6 6 5 5 5 6 6 5 4 4 4 4 4 4 3 3 3 4 5 6 7 10 12 14 13
5 6 7 5 6 4 4 4 4 6 6 6 5 5 5 6 5 5 6 5 5 4 4 5 6 6 5 4 4 5 5 5 4 5 5 4 3 4 5 6 6 6 10 12
5 5 6 5 4 4 4 5 6 6 7 6 5 5 5 5 5 5 4 4 4 3 3 5 5 5 4 4 5 6 5 4 5 5 5 5 4 6 6 7 7 7 6 7
6 5 5 5 5 5 4 5 6 7 6 6 5 4 4 4 5 4 3 3 4 5 4 4 5 5 4 5 5 5 4 5 5 5 6 6 5 4 6 7 7 7 7 6
7 8 6 6 5 5 5 4 5 5 5 5 4 4 4 4 4 4 3 3 3 2 3 3 4 5 5 4 6 6 5 6 4 6 6 6 6 6 5 5 6 6 7 8
5 5 5 5 5 5 5 4 4 4 4 3 3 3 4 4 4 4 3 3 3 3 2 2 2 4 5 5 5 5 5 6 6 6 6 6 6 7 8 8 7 7 8 8
4 5 4 4 4 4 4 4 4 4 3 3 4 4 4 3 4 3 2 3 4 4 3 3 1 1 2 2 3 5 5 6 7 7 7 7 8 8 9 8 8 8 8 8
4 4 4 4 3 4 5 4 4 4 4 4 3 4 5 5 4 3 4 4 3 3 2 2 2 5 5 4 2 4 5 6 6 6 7 7 7 7 7 7 7 6 7 7
5 5 4 4 4 4 4 4 4 4 4 4 4 4 5 5 3 3 4 5 3 2 3 2 3 5 5 4 4 4 2 4 4 4 4 5 5 6 5 5 5 5 5 5
6 5 5 4 4 4 4 5 5 4 5 5 4 4 4 4 4 3 3 4 3 3 3 3 3 3 3 2 4 3 3 3 3 4 4 5 5 4 4 4 4 4 5 5
5 5 5 5 5 5 4 4 4 4 4 5 5 5 5 4 4 4 5 3 4 3 3 4 6 2 1 5 4 4 3 3 4 4 4 4 4 4 5 4 4 4 5 5
5 5 5 4 5 5 6 5 4 5 4 4 4 4 4 4 4 3 3 3 4 3 3 3 4 3 3 5 5 5 4 4 4 4 4 6 5 5 5 6 6 6 6 6
5 4 4 5 5 5 4 4 5 4 4 4 4 4 3 3 3 2 3 3 3 3 2 3 3 3 4 6 5 5 6 6 5 5 5 5 6 6 6 6 6 7 6 6
5 5 5 5 5 5 5 5 4 4 4 4 2 3 3 2 3 3 2 2 2 2 2 3 3 3 4 5 4 5 6 5 6 6 6 6 6 6 6 6 7 7 6 6
4 5 4 4 4 4 4 5 5 4 4 4 4 4 3 3 3 3 3 3 4 4 5 5 5 4 5 5 5 6 6 6 7 6 6 7 7 6 6 6 7 6 7 6